Weather reports worldwide

Advertisment
St Joseph MO/Rosecrans, United States of America (72449): temperature & dewpoint: 09.09.2019 03:00:00 - 15.09.2019 03:00:00 (CDT)St Joseph MO/Rosecrans, United States of America (72449): wind speed & gusts: 09.09.2019 03:00:00 - 15.09.2019 03:00:00 (CDT)St Joseph MO/Rosecrans, United States of America (72449): wind direction: 09.09.2019 03:00:00 - 15.09.2019 03:00:00 (CDT)St Joseph MO/Rosecrans, United States of America (72449): reduced air pressure: 09.09.2019 03:00:00 - 15.09.2019 03:00:00 (CDT)St Joseph MO/Rosecrans, United States of America (72449): visibility: 09.09.2019 03:00:00 - 15.09.2019 03:00:00 (CDT)St Joseph MO/Rosecrans, United States of America (72449): precipitation: 09.09.2019 03:00:00 - 15.09.2019 03:00:00 (CDT)
Date & Time tt [°C] td [°C] ff [km/h] ff [kn] fx [km/h] fx [kn] dd ppp [hPa] vv [km] rr [mm]
15.09.2019 03:00:00 25,0 21,1 16 9 - - SSW 1015,4 16 -
15.09.2019 02:00:00 25,6 21,1 21 11 - - S 1015,5 10 -
15.09.2019 01:00:00 25,6 20,6 21 11 - - SSW 1015,7 16 -
15.09.2019 00:00:00 25,6 20,6 18 10 - - S 1015,8 16 -
14.09.2019 23:00:00 25,0 20,6 16 9 - - S 1015,8 16 -
14.09.2019 22:00:00 24,4 21,1 13 7 - - S 1016,0 16 -
14.09.2019 21:00:00 25,6 21,1 11 6 - - S 1015,9 16 -
14.09.2019 20:00:00 26,1 21,1 13 7 - - S 1015,6 16 -
14.09.2019 19:00:00 28,3 21,7 15 8 - - S 1015,4 16 -
14.09.2019 18:00:00 29,4 21,1 11 6 - - S 1015,7 16 -
14.09.2019 17:00:00 30,6 21,7 16 9 - - S 1016,1 16 -
14.09.2019 16:00:00 30,0 21,1 18 10 - - S 1016,7 16 -
14.09.2019 15:00:00 29,4 20,6 24 13 - - S 1017,3 16 -
14.09.2019 14:00:00 29,4 20,0 21 11 - - SSW 1018,1 16 -
14.09.2019 13:00:00 28,3 19,4 21 11 - - S 1019,0 16 -
14.09.2019 12:00:00 26,7 18,3 18 10 - - S 1019,8 16 -
14.09.2019 11:00:00 24,4 16,7 15 8 - - S 1020,2 16 -
14.09.2019 10:00:00 23,3 16,1 16 9 - - S 1021,0 16 -
14.09.2019 09:00:00 20,0 16,1 11 6 - - S 1021,3 16 -
14.09.2019 08:00:00 17,2 15,0 8 4 - - S 1021,4 16 -
14.09.2019 07:00:00 15,6 14,4 5 3 - - SSE 1021,3 16 -
14.09.2019 06:00:00 16,7 15,0 5 3 - - SSE 1021,2 16 -
14.09.2019 05:00:00 15,6 14,4 0 0 - - N 1021,2 16 -
14.09.2019 04:00:00 16,1 14,4 8 4 - - SE 1021,1 16 -
14.09.2019 03:00:00 15,6 13,9 0 0 - - N 1021,3 16 -
14.09.2019 02:00:00 16,1 14,4 5 3 - - SSE 1021,7 16 -
14.09.2019 01:00:00 17,2 14,4 5 3 - - S 1021,5 16 -
14.09.2019 00:00:00 17,8 15,0 11 6 - - S 1021,6 16 -
13.09.2019 23:00:00 18,3 15,6 9 5 - - SSW 1021,8 16 -
13.09.2019 22:00:00 18,9 15,6 9 5 - - SSW 1021,6 16 -
13.09.2019 21:00:00 19,4 15,6 11 6 - - SSW 1021,4 16 -
13.09.2019 20:00:00 20,0 16,1 8 4 - - S 1021,0 16 -
13.09.2019 19:00:00 22,8 15,0 11 6 - - S 1020,8 16 -
13.09.2019 18:00:00 25,6 13,9 8 4 - - SSW 1020,8 16 -
13.09.2019 17:00:00 26,1 11,7 8 4 - - S 1020,9 16 -
13.09.2019 16:00:00 26,1 12,8 5 3 - - - 1021,1 16 -
13.09.2019 15:00:00 25,6 12,8 13 7 - - NW 1021,7 16 -
13.09.2019 14:00:00 24,4 12,8 21 11 - - NW 1022,3 16 -
13.09.2019 13:00:00 23,3 12,8 22 12 - - NNW 1022,7 16 -
13.09.2019 12:00:00 22,2 12,8 18 10 - - NNW 1022,7 16 -
13.09.2019 11:00:00 20,6 12,2 21 11 - - NNW 1022,9 16 -
13.09.2019 10:00:00 18,9 12,2 18 10 - - NW 1022,7 16 -
13.09.2019 09:00:00 16,7 12,8 8 4 - - WNW 1022,5 16 -
13.09.2019 08:00:00 14,4 12,8 0 0 - - N 1022,1 16 -
13.09.2019 07:00:00 13,9 11,7 11 6 - - W 1021,5 16 -
13.09.2019 06:00:00 14,4 12,2 0 0 - - N 1020,3 16 -
13.09.2019 05:00:00 15,0 12,2 9 5 - - W 1019,7 16 -
13.09.2019 04:00:00 16,1 13,3 11 6 - - WSW 1019,4 16 -
13.09.2019 03:00:00 16,7 15,0 11 6 - - WSW 1018,9 16 -
13.09.2019 02:00:00 17,8 15,0 8 4 - - WSW 1018,4 16 -
13.09.2019 01:00:00 18,9 17,2 15 8 - - W 1018,0 16 -
13.09.2019 00:00:00 20,0 18,9 9 5 - - SW 1017,5 16 -
12.09.2019 23:00:00 20,0 17,8 9 5 - - SW 1017,3 16 -
12.09.2019 22:00:00 21,7 20,6 11 6 - - W 1016,8 16 -
12.09.2019 21:00:00 22,2 21,1 5 3 - - SW 1015,9 16 -
12.09.2019 20:00:00 22,8 21,7 9 5 - - SSW 1015,8 16 -
12.09.2019 19:00:00 23,3 22,2 9 5 - - SSW 1014,9 16 -
12.09.2019 18:00:00 22,8 21,7 9 5 - - W 1014,8 4,8 0,0
12.09.2019 17:00:00 23,9 21,7 15 8 - - SSW 1013,8 16 -
12.09.2019 16:00:00 23,3 22,2 8 4 - - SSW 1014,4 16 -
12.09.2019 15:00:00 22,8 21,1 5 3 - - SSW 1014,5 16 -
12.09.2019 14:00:00 22,2 20,6 18 10 - - SW 1014,5 3,2 0,0
12.09.2019 13:00:00 25,0 20,0 22 12 - - SSW 1014,7 16 0,0
12.09.2019 12:00:00 25,6 21,1 21 11 - - SSW 1013,9 16 0,0
12.09.2019 11:00:00 24,4 20,6 31 17 - - S 1013,2 16 0,0
12.09.2019 10:00:00 26,1 20,6 34 18 50 27 SSW 1013,0 16 -
12.09.2019 09:00:00 26,1 20,6 24 13 - - SSW 1013,2 16 -
12.09.2019 08:00:00 25,0 20,0 22 12 - - S 1013,8 16 -
12.09.2019 07:00:00 24,4 20,0 18 10 - - S 1013,7 16 -
12.09.2019 06:00:00 24,4 20,0 15 8 - - S 1013,7 16 -
12.09.2019 05:00:00 24,4 20,6 15 8 - - S 1013,7 16 -
12.09.2019 04:00:00 25,0 20,6 13 7 - - S 1013,5 16 -
12.09.2019 03:00:00 25,0 20,6 11 6 - - S 1013,3 16 -
12.09.2019 02:00:00 25,0 20,6 16 9 - - S 1013,4 16 -
12.09.2019 01:00:00 25,0 20,6 13 7 - - S 1013,1 16 -
12.09.2019 00:00:00 26,1 20,0 26 14 - - S 1013,2 16 -
11.09.2019 23:00:00 26,1 20,0 21 11 - - S 1014,0 16 -
11.09.2019 22:00:00 26,7 20,0 18 10 - - S 1013,9 16 -
11.09.2019 21:00:00 26,7 20,0 15 8 - - SSE 1013,5 16 -
11.09.2019 20:00:00 26,1 20,6 13 7 - - S 1013,5 16 -
11.09.2019 19:00:00 28,9 20,6 13 7 - - S 1013,4 16 -
11.09.2019 18:00:00 30,6 20,6 18 10 - - S 1013,4 16 -
11.09.2019 17:00:00 31,7 20,0 29 16 - - S 1013,6 16 -
11.09.2019 16:00:00 32,2 21,1 29 16 - - S 1013,9 16 -
11.09.2019 15:00:00 32,2 21,1 26 14 - - S 1014,6 16 -
11.09.2019 14:00:00 31,7 21,7 26 14 - - SSW 1015,3 16 -
11.09.2019 13:00:00 31,1 21,7 21 11 - - S 1015,8 16 -
11.09.2019 12:00:00 30,0 21,1 18 10 - - SSW 1016,3 16 -
11.09.2019 11:00:00 28,3 20,6 24 13 - - SSW 1016,5 16 -
11.09.2019 10:00:00 27,2 20,6 21 11 - - S 1016,8 16 -
11.09.2019 09:00:00 25,6 20,0 21 11 - - S 1016,5 15 -
11.09.2019 08:00:00 24,4 20,0 15 8 - - S 1016,2 15 -
11.09.2019 07:00:00 23,9 19,4 21 11 - - S 1015,7 16 -
11.09.2019 06:00:00 23,9 19,4 15 8 - - S 1015,6 16 -
11.09.2019 05:00:00 25,0 19,4 18 10 - - S 1015,6 16 -
11.09.2019 04:00:00 25,0 20,0 18 10 - - S 1015,7 16 -
11.09.2019 03:00:00 24,4 20,6 13 7 - - S 1015,9 16 -
11.09.2019 02:00:00 24,4 20,6 9 5 - - SSE 1016,6 16 -
11.09.2019 01:00:00 23,9 20,6 11 6 - - S 1016,1 16 -
11.09.2019 00:00:00 24,4 20,6 11 6 - - S 1015,8 16 -
10.09.2019 23:00:00 25,6 20,6 18 10 - - S 1015,2 16 -
10.09.2019 22:00:00 26,1 21,7 15 8 - - S 1015,1 16 -
10.09.2019 21:00:00 26,1 22,2 13 7 - - S 1014,7 16 -
10.09.2019 20:00:00 26,7 22,2 11 6 - - SSE 1014,5 16 -
10.09.2019 19:00:00 27,2 22,8 8 4 - - SSE 1014,7 16 -
10.09.2019 18:00:00 27,8 22,2 9 5 - - SSE 1014,8 16 -
10.09.2019 17:00:00 28,3 22,2 9 5 - - SSE 1015,2 16 -
10.09.2019 16:00:00 28,3 21,7 15 8 - - S 1015,2 16 -
10.09.2019 15:00:00 30,0 22,2 22 12 - - SSE 1015,3 16 -
10.09.2019 14:00:00 30,6 21,7 15 8 - - S 1015,7 16 -
10.09.2019 13:00:00 30,0 21,7 11 6 - - S 1015,6 16 -
10.09.2019 12:00:00 29,4 20,6 0 0 - - N 1016,1 16 -
10.09.2019 11:00:00 26,7 20,0 0 0 - - N 1016,1 16 -
10.09.2019 10:00:00 25,6 19,4 15 8 - - S 1015,5 16 -
10.09.2019 09:00:00 25,0 18,9 13 7 - - SSW 1015,0 16 -
10.09.2019 08:00:00 24,4 18,9 21 11 - - S 1014,8 16 -
10.09.2019 07:00:00 23,9 18,9 15 8 - - S 1014,1 16 -
10.09.2019 06:00:00 23,9 19,4 15 8 - - S 1013,4 16 -
10.09.2019 05:00:00 23,9 19,4 15 8 - - S 1013,2 16 -
10.09.2019 04:00:00 23,9 19,4 13 7 - - S 1013,1 16 -
10.09.2019 03:00:00 25,0 19,4 13 7 - - S 1013,4 16 -
10.09.2019 02:00:00 25,6 19,4 15 8 - - S 1013,5 16 -
10.09.2019 01:00:00 26,1 19,4 16 9 - - S 1013,0 16 -
10.09.2019 00:00:00 26,1 20,0 18 10 - - S 1012,8 16 -
09.09.2019 23:00:00 26,1 20,6 13 7 - - S 1012,9 16 -
09.09.2019 22:00:00 27,2 20,6 15 8 - - S 1012,5 16 -
09.09.2019 21:00:00 27,2 20,6 13 7 - - SSE 1012,1 16 -
09.09.2019 20:00:00 26,7 20,6 9 5 - - SSE 1011,9 16 0,0
09.09.2019 19:00:00 28,3 20,6 13 7 - - S 1011,5 16 0,0
09.09.2019 18:00:00 29,4 20,6 13 7 - - S 1011,3 16 -
09.09.2019 17:00:00 30,0 20,6 15 8 - - S 1011,5 16 -
09.09.2019 16:00:00 32,2 20,0 26 14 - - S 1011,5 16 -
09.09.2019 15:00:00 31,7 20,0 28 15 59 32 S 1012,1 16 -
09.09.2019 14:00:00 32,8 20,0 28 15 52 28 SSW 1012,6 16 -
09.09.2019 13:00:00 31,7 20,6 29 16 50 27 SSW 1012,7 16 -
09.09.2019 12:00:00 30,0 20,6 21 11 - - S 1012,8 16 -
09.09.2019 11:00:00 28,9 20,6 21 11 - - S 1013,2 16 -
09.09.2019 10:00:00 26,1 20,6 18 10 - - S 1013,8 16 -
09.09.2019 09:00:00 24,4 21,1 15 8 - - S 1014,1 16 -
09.09.2019 08:00:00 22,2 20,6 5 3 - - SSE 1014,3 8 -
09.09.2019 07:00:00 21,7 20,6 8 4 - - SE 1014,0 10 -
09.09.2019 06:00:00 21,7 20,6 8 4 - - SE 1013,6 10 -
09.09.2019 05:00:00 21,7 20,6 11 6 - - ESE 1013,7 13 -
09.09.2019 04:00:00 22,2 21,1 8 4 - - SE 1013,5 13 -
09.09.2019 03:00:00 22,2 21,1 15 8 - - SE 1013,5 15 -

tt = temperature
td = dewpoint
ff = wind speed
fx = gusts
dd = wind direction
ppp = reduced air pressure
vv = visibility
rr = precipitation

Next stations